Flag for China Weather past 2 weeks in Xiamen, Fujian, China

Now
81 °F

Clear.


Feels Like: 88 °F
Forecast: 80 / 90 °F
Wind: 1 mph from North

Location: Xiamen Airport

Current Time: Jul 26, 2014 at 4:56:44 AM

Latest Report: Jul 26, 2014 at 4:00 AM


Visibility: 10 mi

Pressure: 29.80 "Hg

Humidity: 94%

Dew point: 79 °F

Location of XiamenLocation

Historic Weather in Xiamen — Graph

°F

Xiamen temperature yesterday

Maximum temperature yesterday: 91 °F (at 11:00 AM)
Minimum temperature yesterday: 81 °F (at 12:00 AM)
Average temperature yesterday: 85 °F

Past Weeks' High & Low Weather Summary

 TemperatureHumidityPressure
High99 °F (Jul 22, 2:00 PM)100% (Jul 23, 1:00 PM)29.83 "Hg (Jul 23, 1:00 PM)
Low77 °F (Jul 24, 12:00 PM)39% (Jul 22, 12:00 PM)29.24 "Hg (Jul 23, 2:00 PM)
Average87 °F76%29.70 "Hg
* Reported Jul 11 3:00 AM — Jul 26 3:00 AM, Xiamen, Weather by CustomWeather, © 2014

Note: Actual official high and low records may vary slightly from our data, if they occured in-between our weather recording intervals... More about our weather records

Advertising

Xiamen weather history for previous 24 hours

 ConditionsComfort  
Time TempWeatherWind HumidityBarometerVisibility
3:00 AM
Jul 26
81 °FPassing clouds.3 mph94%29.80 "HgN/A
2:00 AM82 °FPassing clouds.6 mph89%29.80 "HgN/A
1:00 AM81 °FPassing clouds.6 mph94%29.80 "HgN/A
12:00 AM82 °FPartly cloudy.3 mph94%29.80 "HgN/A
11:00 PM
Jul 25
84 °FPassing clouds.3 mph89%29.83 "HgN/A
10:00 PM84 °FPassing clouds.3 mph89%29.83 "HgN/A
9:00 PM82 °FPassing clouds.3 mph94%29.80 "HgN/A
8:00 PM84 °FPassing clouds.3 mph89%29.77 "HgN/A
7:00 PM84 °FPassing clouds.3 mph84%29.74 "HgN/A
6:00 PM86 °FPassing clouds.6 mph79%29.71 "HgN/A
5:00 PM88 °FPassing clouds.13 mph75%29.71 "HgN/A
4:00 PM88 °FPassing clouds.17 mph75%29.71 "HgN/A
3:00 PM91 °FPassing clouds.8 mph63%29.68 "HgN/A
2:00 PM91 °FPassing clouds.10 mph63%29.71 "HgN/A
1:00 PM91 °FPassing clouds.13 mph67%29.71 "HgN/A
12:00 PM91 °FScattered clouds.8 mph71%29.74 "HgN/A
11:00 AM91 °FScattered clouds.6 mph71%29.74 "HgN/A
10:00 AM88 °FPartly sunny.6 mph79%29.74 "HgN/A
9:00 AM88 °FScattered clouds.10 mph79%29.71 "HgN/A
8:00 AM86 °FScattered clouds.8 mph84%29.71 "HgN/A
7:00 AM82 °FScattered clouds.3 mph94%29.68 "HgN/A
6:00 AM81 °FScattered clouds.6 mph100%29.68 "HgN/A
5:00 AM81 °FPartly cloudy.3 mph100%29.65 "HgN/A
4:00 AM81 °FMostly cloudy.No wind100%29.65 "Hg4 mi
Weather by CustomWeather, © 2014

See weather overviewHow to use our weather pages